| time (UTC) | temp F | wind direction | speed knots | gust knots | rain 1hr in | rain 24hr in | rain mn in | humidity % | barometer mb |
| 20260504050512 | 50 | 212 | 6.1 | 8.7 | 0.00 | 0.00 | 0.00 | 47 | 1009.8 |
| 20260504050012 | 50 | 208 | 4.3 | 7.8 | 0.00 | 0.00 | 0.00 | 47 | 1009.8 |
| 20260504045507 | 50 | 180 | 4.3 | 7.8 | 0.00 | 0.00 | 0.00 | 46 | 1009.9 |
| 20260504045011 | 50 | 167 | 4.3 | 7.0 | 0.00 | 0.00 | 0.00 | 47 | 1010.0 |
| 20260504044529 | 50 | 186 | 3.5 | 7.0 | 0.00 | 0.00 | 0.00 | 46 | 1009.9 |
| 20260504044007 | 50 | 169 | 4.3 | 7.0 | 0.00 | 0.00 | 0.00 | 46 | 1010.0 |
| 20260504043507 | 51 | 181 | 2.6 | 7.0 | 0.00 | 0.00 | 0.00 | 45 | 1010.0 |
| 20260504043007 | 51 | 176 | 2.6 | 6.1 | 0.00 | 0.00 | 0.00 | 44 | 1009.9 |
| 20260504042505 | 51 | 179 | 2.6 | 6.1 | 0.00 | 0.00 | 0.00 | 44 | 1009.8 |
| 20260504042008 | 51 | 163 | 3.5 | 6.1 | 0.00 | 0.00 | 0.00 | 43 | 1009.9 |
| 20260504041505 | 51 | 179 | 2.6 | 4.3 | 0.00 | 0.00 | 0.00 | 43 | 1009.9 |
| 20260504041002 | 52 | 178 | 2.6 | 3.5 | 0.00 | 0.00 | 0.00 | 43 | 1009.9 |
| 20260504040503 | 52 | 180 | 1.7 | 4.3 | 0.00 | 0.00 | 0.00 | 42 | 1009.9 |
| 20260504040038 | 52 | 189 | 2.6 | 4.3 | 0.00 | 0.00 | 0.00 | 43 | 1009.8 |
| 20260504035506 | 52 | 180 | 1.7 | 3.5 | 0.00 | 0.00 | 0.00 | 43 | 1009.9 |
| 20260504035005 | 52 | 177 | 1.7 | 4.3 | 0.00 | 0.00 | 0.00 | 42 | 1009.9 |
| 20260504034518 | 52 | 182 | 1.7 | 4.3 | 0.00 | 0.00 | 0.00 | 44 | 1009.9 |
| 20260504034008 | 52 | 181 | 0.9 | 1.7 | 0.00 | 0.00 | 0.00 | 43 | 1010.0 |
| 20260504033504 | 52 | 224 | 0.9 | 1.7 | 0.00 | 0.00 | 0.00 | 42 | 1010.0 |
| 20260504033017 | 52 | 224 | 0.0 | 1.7 | 0.00 | 0.00 | 0.00 | 43 | 1010.1 |
| 20260504032507 | 52 | 224 | 0.0 | 1.7 | 0.00 | 0.00 | 0.00 | 42 | 1010.2 |
| 20260504032005 | 52 | 224 | 0.0 | 2.6 | 0.00 | 0.00 | 0.00 | 43 | 1010.2 |
| 20260504031513 | 53 | 224 | 1.7 | 3.5 | 0.00 | 0.00 | 0.00 | 43 | 1010.2 |
| 20260504031005 | 53 | 189 | 1.7 | 5.2 | 0.00 | 0.00 | 0.00 | 43 | 1010.2 |
| 20260504030510 | 53 | 191 | 2.6 | 4.3 | 0.00 | 0.00 | 0.00 | 42 | 1010.2 |
| 20260504030010 | 53 | 210 | 2.6 | 5.2 | 0.00 | 0.00 | 0.00 | 42 | 1010.2 |
| 20260504025503 | 53 | 247 | 2.6 | 5.2 | 0.00 | 0.00 | 0.00 | 42 | 1010.2 |
| 20260504025009 | 53 | 267 | 1.7 | 4.3 | 0.00 | 0.00 | 0.00 | 41 | 1010.2 |
| 20260504024504 | 54 | 238 | 1.7 | 6.1 | 0.00 | 0.00 | 0.00 | 41 | 1010.3 |
| 20260504024006 | 54 | 264 | 1.7 | 7.8 | 0.00 | 0.00 | 0.00 | 41 | 1010.3 |
| 20260504023509 | 54 | 249 | 0.0 | 7.8 | 0.00 | 0.00 | 0.00 | 41 | 1010.4 |
| 20260504023024 | 54 | 226 | 2.6 | 8.7 | 0.00 | 0.00 | 0.00 | 41 | 1010.4 |
| 20260504022504 | 54 | 250 | 4.3 | 9.6 | 0.00 | 0.00 | 0.00 | 40 | 1010.4 |
| 20260504022005 | 54 | 225 | 3.5 | 9.6 | 0.00 | 0.00 | 0.00 | 40 | 1010.4 |
| 20260504021523 | 54 | 299 | 2.6 | 9.6 | 0.00 | 0.00 | 0.00 | 40 | 1010.4 |
| 20260504021003 | 53 | 256 | 4.3 | 9.6 | 0.00 | 0.00 | 0.00 | 40 | 1010.5 |
| 20260504020505 | 53 | 245 | 0.9 | 7.8 | 0.00 | 0.00 | 0.00 | 41 | 1010.5 |
| 20260504020019 | 53 | 221 | 1.7 | 7.8 | 0.00 | 0.00 | 0.00 | 41 | 1010.5 |
| 20260504015508 | 53 | 229 | 1.7 | 5.2 | 0.00 | 0.00 | 0.00 | 41 | 1010.6 |
| 20260504015004 | 53 | 233 | 1.7 | 7.0 | 0.00 | 0.00 | 0.00 | 41 | 1010.5 |
| 20260504014523 | 53 | 235 | 3.5 | 8.7 | 0.00 | 0.00 | 0.00 | 41 | 1010.4 |
| 20260504014007 | 53 | 244 | 4.3 | 10.4 | 0.00 | 0.00 | 0.00 | 40 | 1010.4 |
| 20260504013503 | 53 | 228 | 7.0 | 10.4 | 0.00 | 0.00 | 0.00 | 41 | 1010.3 |
| 20260504013013 | 53 | 228 | 5.2 | 9.6 | 0.00 | 0.00 | 0.00 | 41 | 1010.4 |
| 20260504012509 | 53 | 248 | 3.5 | 9.6 | 0.00 | 0.00 | 0.00 | 42 | 1010.5 |
| 20260504012013 | 53 | 222 | 3.5 | 7.0 | 0.00 | 0.00 | 0.00 | 42 | 1010.5 |
| 20260504011509 | 53 | 263 | 2.6 | 14.8 | 0.00 | 0.00 | 0.00 | 42 | 1010.6 |
| 20260504011004 | 53 | 236 | 7.8 | 15.6 | 0.00 | 0.00 | 0.00 | 42 | 1010.7 |
| 20260504010507 | 54 | 309 | 7.0 | 15.6 | 0.00 | 0.00 | 0.00 | 40 | 1010.7 |
| 20260504010025 | 54 | 273 | 4.3 | 13.0 | 0.00 | 0.00 | 0.00 | 38 | 1010.6 |
| 20260504005505 | 54 | 239 | 6.1 | 15.6 | 0.00 | 0.00 | 0.00 | 38 | 1010.5 |
| 20260504005005 | 54 | 250 | 3.5 | 15.6 | 0.00 | 0.00 | 0.00 | 38 | 1010.4 |
| 20260504004538 | 54 | 250 | 7.0 | 14.8 | 0.00 | 0.00 | 0.00 | 38 | 1010.4 |
| 20260504004002 | 54 | 255 | 5.2 | 11.3 | 0.00 | 0.00 | 0.00 | 39 | 1010.4 |
| 20260504003510 | 54 | 332 | 4.3 | 13.0 | 0.00 | 0.00 | 0.00 | 41 | 1010.2 |
| 20260504003021 | 53 | 255 | 6.1 | 13.0 | 0.00 | 0.00 | 0.00 | 40 | 1010.2 |
| 20260504002508 | 53 | 215 | 3.5 | 12.2 | 0.00 | 0.00 | 0.00 | 41 | 1010.2 |
| 20260504002005 | 53 | 204 | 6.1 | 12.2 | 0.00 | 0.00 | 0.00 | 42 | 1010.2 |
| 20260504001517 | 53 | 224 | 4.3 | 19.1 | 0.00 | 0.00 | 0.00 | 42 | 1010.1 |
| 20260504001007 | 53 | 212 | 12.2 | 19.1 | 0.00 | 0.00 | 0.00 | 41 | 1010.0 |
| 20260504000504 | 53 | 272 | 1.7 | 11.3 | 0.00 | 0.00 | 0.00 | 41 | 1010.1 |
| 20260504000016 | 53 | 252 | 3.5 | 11.3 | 0.00 | 0.00 | 0.00 | 41 | 1010.2 |
| 20260503235507 | 54 | 220 | 3.5 | 8.7 | 0.00 | 0.00 | 0.00 | 41 | 1010.2 |
| 20260503235007 | 54 | 302 | 2.6 | 11.3 | 0.00 | 0.00 | 0.00 | 41 | 1010.1 |
| 20260503234513 | 54 | 269 | 4.3 | 11.3 | 0.00 | 0.00 | 0.00 | 42 | 1010.0 |
| 20260503234007 | 54 | 278 | 3.5 | 10.4 | 0.00 | 0.00 | 0.00 | 41 | 1010.0 |
| 20260503233510 | 54 | 337 | 5.2 | 19.1 | 0.00 | 0.00 | 0.00 | 41 | 1010.0 |
| 20260503233007 | 54 | 317 | 8.7 | 19.1 | 0.00 | 0.00 | 0.00 | 40 | 1010.0 |
| 20260503232504 | 54 | 281 | 5.2 | 15.6 | 0.00 | 0.00 | 0.00 | 39 | 1010.0 |
| 20260503232008 | 55 | 285 | 5.2 | 18.2 | 0.00 | 0.00 | 0.00 | 39 | 1009.8 |
| 20260503231528 | 55 | 248 | 9.6 | 18.2 | 0.00 | 0.00 | 0.00 | 38 | 1009.8 |
| 20260503231004 | 55 | 259 | 7.0 | 16.5 | 0.00 | 0.00 | 0.00 | 38 | 1009.6 |
| 20260503230508 | 55 | 281 | 4.3 | 7.8 | 0.00 | 0.00 | 0.00 | 39 | 1009.6 |
| 20260503230025 | 55 | 257 | 4.3 | 7.0 | 0.00 | 0.00 | 0.00 | 39 | 1009.4 |
| 20260503225504 | 55 | 233 | 1.7 | 7.8 | 0.00 | 0.00 | 0.00 | 40 | 1009.4 |
| 20260503225007 | 55 | 236 | 4.3 | 8.7 | 0.00 | 0.00 | 0.00 | 38 | 1009.3 |
| 20260503224524 | 55 | 244 | 4.3 | 7.8 | 0.00 | 0.00 | 0.00 | 38 | 1009.3 |
| 20260503224011 | 56 | 247 | 6.1 | 8.7 | 0.00 | 0.00 | 0.00 | 38 | 1009.3 |
| 20260503223505 | 55 | 231 | 2.6 | 8.7 | 0.00 | 0.00 | 0.00 | 39 | 1009.3 |
| 20260503223021 | 55 | 266 | 4.3 | 7.8 | 0.00 | 0.00 | 0.00 | 38 | 1009.4 |
| 20260503222508 | 55 | 207 | 2.6 | 7.0 | 0.00 | 0.00 | 0.00 | 39 | 1009.4 |
| 20260503222011 | 55 | 279 | 3.5 | 9.6 | 0.00 | 0.00 | 0.00 | 39 | 1009.5 |
| 20260503221519 | 55 | 293 | 6.1 | 9.6 | 0.00 | 0.00 | 0.00 | 38 | 1009.5 |
| 20260503221009 | 55 | 245 | 2.6 | 7.0 | 0.00 | 0.00 | 0.00 | 39 | 1009.5 |
| 20260503220519 | 55 | 264 | 3.5 | 13.0 | 0.00 | 0.00 | 0.00 | 39 | 1009.6 |
| 20260503220012 | 55 | 284 | 4.3 | 13.0 | 0.00 | 0.00 | 0.00 | 38 | 1009.6 |
| 20260503215507 | 55 | 205 | 2.6 | 7.0 | 0.00 | 0.00 | 0.00 | 39 | 1009.7 |
| 20260503215009 | 55 | 255 | 1.7 | 8.7 | 0.00 | 0.00 | 0.00 | 39 | 1009.6 |
| 20260503214528 | 54 | 330 | 2.6 | 8.7 | 0.00 | 0.00 | 0.00 | 39 | 1009.6 |
| 20260503214004 | 54 | 216 | 3.5 | 8.7 | 0.00 | 0.00 | 0.00 | 41 | 1009.7 |
| 20260503213511 | 54 | 304 | 2.6 | 8.7 | 0.00 | 0.00 | 0.00 | 39 | 1009.6 |
| 20260503213027 | 54 | 259 | 4.3 | 8.7 | 0.00 | 0.00 | 0.00 | 39 | 1009.6 |
| 20260503212503 | 54 | 212 | 1.7 | 8.7 | 0.00 | 0.00 | 0.00 | 40 | 1009.6 |
| 20260503212011 | 55 | 323 | 3.5 | 10.4 | 0.00 | 0.00 | 0.00 | 39 | 1009.7 |
| 20260503211527 | 55 | 248 | 4.3 | 10.4 | 0.00 | 0.00 | 0.00 | 39 | 1009.7 |
| 20260503211011 | 55 | 274 | 4.3 | 8.7 | 0.00 | 0.00 | 0.00 | 39 | 1009.7 |
| 20260503210504 | 55 | 316 | 1.7 | 8.7 | 0.00 | 0.00 | 0.00 | 39 | 1009.7 |
| 20260503210025 | 55 | 278 | 2.6 | 9.6 | 0.00 | 0.00 | 0.00 | 38 | 1009.8 |
| 20260503205510 | 54 | 258 | 4.3 | 10.4 | 0.00 | 0.00 | 0.00 | 38 | 1009.8 |
| 20260503205007 | 54 | 322 | 4.3 | 11.3 | 0.00 | 0.00 | 0.00 | 39 | 1009.9 |
| 20260503204526 | 54 | 318 | 6.1 | 11.3 | 0.00 | 0.00 | 0.00 | 39 | 1010.0 |
| 20260503204012 | 54 | 283 | 2.6 | 8.7 | 0.00 | 0.00 | 0.00 | 40 | 1010.0 |
| 20260503203513 | 53 | 266 | 3.5 | 13.0 | 0.00 | 0.00 | 0.00 | 40 | 1010.1 |
| 20260503203018 | 53 | 239 | 6.1 | 13.0 | 0.00 | 0.00 | 0.00 | 40 | 1010.1 |
| 20260503202507 | 53 | 306 | 6.1 | 13.0 | 0.00 | 0.00 | 0.00 | 39 | 1010.2 |
| 20260503202014 | 53 | 291 | 4.3 | 20.9 | 0.00 | 0.00 | 0.00 | 40 | 1010.2 |
| 20260503201511 | 53 | 259 | 5.2 | 20.9 | 0.00 | 0.00 | 0.00 | 40 | 1010.2 |
| 20260503201007 | 53 | 293 | 6.1 | 13.0 | 0.00 | 0.00 | 0.00 | 40 | 1010.3 |
| 20260503200511 | 53 | 352 | 3.5 | 12.2 | 0.00 | 0.00 | 0.00 | 40 | 1010.3 |
| 20260503200028 | 53 | 233 | 6.1 | 13.0 | 0.00 | 0.00 | 0.00 | 39 | 1010.4 |
| 20260503195507 | 53 | 265 | 3.5 | 13.0 | 0.00 | 0.00 | 0.00 | 39 | 1010.4 |
| 20260503195012 | 53 | 272 | 5.2 | 14.8 | 0.00 | 0.00 | 0.00 | 40 | 1010.4 |
| 20260503194526 | 53 | 226 | 7.0 | 14.8 | 0.00 | 0.00 | 0.00 | 39 | 1010.5 |
| 20260503194004 | 53 | 333 | 6.1 | 13.9 | 0.00 | 0.00 | 0.00 | 39 | 1010.4 |
| 20260503193510 | 53 | 349 | 7.0 | 13.9 | 0.00 | 0.00 | 0.00 | 39 | 1010.7 |
| 20260503193037 | 53 | 298 | 4.3 | 14.8 | 0.00 | 0.00 | 0.00 | 40 | 1010.7 |
| 20260503192510 | 53 | 275 | 6.1 | 14.8 | 0.00 | 0.00 | 0.00 | 40 | 1010.7 |
| 20260503192007 | 53 | 312 | 2.6 | 9.6 | 0.00 | 0.00 | 0.00 | 39 | 1010.7 |
| 20260503191522 | 53 | 347 | 4.3 | 13.9 | 0.00 | 0.00 | 0.00 | 39 | 1010.8 |
| 20260503191012 | 53 | 236 | 6.1 | 13.9 | 0.00 | 0.00 | 0.00 | 39 | 1010.8 |
| 20260503190503 | 53 | 280 | 6.1 | 13.0 | 0.00 | 0.00 | 0.00 | 39 | 1010.8 |
| 20260503190020 | 52 | 301 | 3.5 | 12.2 | 0.00 | 0.00 | 0.00 | 39 | 1010.9 |
| 20260503185509 | 52 | 328 | 4.3 | 8.7 | 0.00 | 0.00 | 0.00 | 38 | 1010.9 |
| 20260503185008 | 52 | 265 | 3.5 | 11.3 | 0.00 | 0.00 | 0.00 | 37 | 1010.9 |
| 20260503184523 | 52 | 227 | 4.3 | 11.3 | 0.00 | 0.00 | 0.00 | 38 | 1010.9 |
| 20260503184010 | 53 | 335 | 4.3 | 10.4 | 0.00 | 0.00 | 0.00 | 38 | 1010.9 |
| 20260503183503 | 53 | 332 | 2.6 | 10.4 | 0.00 | 0.00 | 0.00 | 37 | 1010.9 |
| 20260503183015 | 52 | 272 | 5.2 | 10.4 | 0.00 | 0.00 | 0.00 | 38 | 1011.0 |
| 20260503182507 | 52 | 283 | 3.5 | 9.6 | 0.00 | 0.00 | 0.00 | 36 | 1011.1 |
| 20260503182011 | 52 | 247 | 1.7 | 9.6 | 0.00 | 0.00 | 0.00 | 38 | 1011.2 |
| 20260503181509 | 52 | 225 | 0.9 | 7.0 | 0.00 | 0.00 | 0.00 | 43 | 1011.2 |
| 20260503181008 | 52 | 1 | 1.7 | 7.0 | 0.00 | 0.00 | 0.00 | 39 | 1011.2 |
| 20260503180508 | 52 | 38 | 2.6 | 10.4 | 0.00 | 0.00 | 0.00 | 40 | 1011.2 |
| 20260503180016 | 52 | 344 | 3.5 | 10.4 | 0.00 | 0.00 | 0.00 | 42 | 1011.2 |
| 20260503175504 | 51 | 347 | 2.6 | 6.1 | 0.00 | 0.00 | 0.00 | 40 | 1011.2 |
| 20260503175010 | 51 | 23 | 2.6 | 10.4 | 0.00 | 0.00 | 0.00 | 41 | 1011.4 |
| 20260503174530 | 51 | 59 | 2.6 | 10.4 | 0.00 | 0.00 | 0.00 | 39 | 1011.4 |
| 20260503174004 | 51 | 333 | 2.6 | 10.4 | 0.00 | 0.00 | 0.00 | 37 | 1011.4 |
| 20260503173504 | 52 | 17 | 5.2 | 10.4 | 0.00 | 0.00 | 0.00 | 37 | 1011.5 |
| 20260503173026 | 52 | 227 | 3.5 | 9.6 | 0.00 | 0.00 | 0.00 | 37 | 1011.5 |
| 20260503172504 | 52 | 323 | 1.7 | 12.2 | 0.00 | 0.00 | 0.00 | 37 | 1011.4 |
| 20260503172017 | 51 | 343 | 6.1 | 12.2 | 0.00 | 0.00 | 0.00 | 37 | 1011.6 |
| 20260503171524 | 51 | 350 | 4.3 | 13.0 | 0.00 | 0.00 | 0.00 | 40 | 1011.6 |
| 20260503171010 | 50 | 267 | 3.5 | 13.0 | 0.00 | 0.00 | 0.00 | 39 | 1011.6 |
| 20260503170505 | 51 | 338 | 4.3 | 13.0 | 0.00 | 0.00 | 0.00 | 39 | 1011.7 |
| 20260503151008 | 45 | 356 | 5.2 | 13.0 | 0.00 | 0.00 | 0.00 | 42 | 1013.3 |
| 20260503150511 | 45 | 304 | 5.2 | 11.3 | 0.00 | 0.00 | 0.00 | 41 | 1013.4 |
| 20260503131009 | 43 | 311 | 5.2 | 11.3 | 0.00 | 0.00 | 0.00 | 47 | 1013.4 |
| 20260503130509 | 43 | 309 | 4.3 | 9.6 | 0.00 | 0.00 | 0.00 | 47 | 1013.5 |
| 20260503110509 | 37 | 240 | 0.9 | 5.2 | 0.00 | 0.00 | 0.00 | 70 | 1013.1 |
| 20260503090509 | 37 | 289 | 2.6 | 6.1 | 0.00 | 0.00 | 0.00 | 70 | 1012.5 |
| 20260503081519 | 37 | 304 | 2.6 | 6.1 | 0.00 | 0.00 | 0.00 | 70 | 1012.4 |
| 20260503081006 | 37 | 338 | 1.7 | 6.1 | 0.00 | 0.00 | 0.00 | 70 | 1012.5 |
| 20260503080512 | 37 | 349 | 0.9 | 4.3 | 0.00 | 0.00 | 0.00 | 70 | 1012.5 |
| 20260503072504 | 37 | 250 | 2.6 | 4.3 | 0.00 | 0.00 | 0.00 | 70 | 1012.5 |
| 20260503072005 | 37 | 300 | 0.9 | 3.5 | 0.00 | 0.00 | 0.00 | 71 | 1012.5 |
| 20260503071533 | 37 | 333 | 0.9 | 3.5 | 0.00 | 0.00 | 0.00 | 71 | 1012.5 |
| 20260503071014 | 37 | 349 | 0.0 | 2.6 | 0.00 | 0.00 | 0.00 | 71 | 1012.5 |
| 20260503070508 | 37 | 339 | 0.0 | 2.6 | 0.00 | 0.00 | 0.00 | 70 | 1012.6 |